Location: Jougne
(46.7629°N, 6.3884°E)
Time: 17:31:02
(UTC+00:00)

Daily predictions for brighter satellites

Satellite Brightness Start Highest point End
(mag) Time Altitude Azimuth Time Altitude Azimuth Time Altitude Azimuth
SPOT 3 Rocket 3.9 19:57:51 10° S 20:03:02 69° WSW 20:08:16 10° NNW
Cosmos 2237 4.4 19:58:27 10° S 20:04:00 53° ESE 20:09:34 10° NE
Cosmos 1455 2.3 20:08:21 10° N 20:12:10 60° E 20:15:58 10° SSE
Cosmos 1461 4.3 20:07:57 10° NW 20:12:23 40° WSW 20:16:48 10° S
Cosmos 1825 Rocket 4.2 20:11:50 10° SSE 20:15:56 38° E 20:20:06 10° NNE
ATLAS CENTAUR R/B 3.0 20:15:22 10° NNW 20:18:20 21° NE 20:21:12 10° E
Cosmos 1703 3.6 20:16:49 10° SSE 20:20:30 44° E 20:24:13 10° NNE
COSMOS 2428 3.9 20:17:04 10° SSE 20:21:24 23° ESE 20:25:46 10° NE
Cosmos 1812 Rocket 3.7 20:18:04 10° NNW 20:22:25 76° W 20:26:44 10° S
Cosmos 1844 4.0 20:18:11 10° NNW 20:23:56 62° ENE 20:29:32 10° SE
Cosmos 2322 4.2 20:19:47 10° S 20:25:05 41° ESE 20:30:25 10° NE
Cosmos 1602 Rocket 4.1 20:24:56 10° SSW 20:29:17 62° WNW 20:33:44 10° N
Cosmos 2263 Rocket 4.2 20:27:40 10° NW 20:31:56 23° WSW 20:36:11 10° SSW
Cosmos 1709 Rocket 4.3 20:25:58 10° SSE 20:32:03 54° E 20:38:13 10° NNE
Nadezhda 1 Rocket 4.2 20:26:37 10° N 20:33:03 80° W 20:39:25 10° S
MetOp-B 4.3 20:28:50 10° SSE 20:34:11 80° WSW 20:39:35 10° NNW
Atlas Centaur 2 3.9 20:30:54 10° SW 20:34:53 18° S 20:38:47 12° SE
Cosmos 2237 Rocket 4.1 20:33:41 10° ESE 20:35:27 11° E 20:37:13 10° ENE
Terra 3.0 20:31:40 10° SE 20:35:42 30° ENE 20:39:49 10° N
CARTOSAT-1 4.2 20:32:57 12° SE 20:36:44 42° ENE 20:40:49 10° N
Cosmos 2333 4.5 20:31:28 10° S 20:36:51 48° ESE 20:42:18 10° NE
Cosmos 2219 Rocket 2.9 20:32:21 10° SSE 20:37:19 34° ESE 20:42:18 10° NE
Cosmos 2360 Rocket 2.2 20:33:26 10° SSW 20:39:04 89° WNW 20:44:48 10° NNE
IGS 5A 3.4 20:35:43 10° SSE 20:39:51 87° E 20:44:03 10° NNW
Cosmos 2333 Rocket 2.6 20:41:42 10° S 20:47:02 44° ESE 20:52:26 10° NE
ATLAS 2AS CENTAUR R/B 4.1 20:43:51 10° NW 20:50:51 35° NNE 20:57:21 10° E
Cosmos 1315 Rocket 3.7 20:47:34 10° N 20:51:24 37° ENE 20:54:13 16° SE
Resurs 01 Rocket 3.2 20:47:53 10° SSW 20:51:48 31° W 20:55:46 10° NNW
Cosmos 1818 3.8 20:48:58 10° SW 20:54:23 76° NW 20:59:53 10° NE
Cosmos-2242 3.1 20:50:37 10° NNW 20:54:58 77° W 20:59:06 11° S
Cosmos 773 Rocket 4.0 20:51:51 10° S 20:57:05 67° ESE 21:02:21 10° NNE
SL-16 R/B 4.1 20:53:12 10° WSW 20:58:17 33° NW 21:03:26 10° NNE
Cosmos 2221 3.8 20:56:01 10° NNE 20:59:50 28° ENE 21:02:29 16° ESE
ERS-1 Rocket 3.0 20:56:51 14° SSE 21:01:09 78° ENE 21:06:12 10° NNW
GEOS 3 Rocket 3.7 20:58:27 10° NE 21:03:53 90° SSE 21:09:17 10° SW
USA 215 3.3 21:00:48 10° ENE 21:07:17 60° SE 21:13:44 10° SW
Cosmos 1892 4.4 21:07:01 15° ESE 21:08:12 17° E 21:10:45 10° NE
Cosmos 2278 Rocket 3.1 21:03:28 10° NNW 21:08:49 40° NE 21:13:09 15° ESE
ATLAS 5 CENTAUR R/B 2.1 21:07:01 10° SW 21:11:07 61° NW 21:15:48 10° NE
USA 245 4.4 21:08:35 10° SSW 21:11:34 35° W 21:15:21 10° NNW
Meteor 1-11 4.2 21:06:05 10° S 21:11:42 83° E 21:17:26 10° NNE
Cosmos 1844 Rocket 3.4 21:08:18 10° NW 21:13:39 48° WSW 21:18:16 14° S
Cosmos 1400 Rocket 3.7 21:10:28 10° NNW 21:14:16 43° W 21:17:41 12° SSW
Gblst 52 Del rocket 4.4 21:08:48 10° WNW 21:14:30 79° NNE 21:20:33 11° ESE
SPOT 5 2.9 21:13:56 17° SSE 21:17:52 86° WSW 21:22:42 10° NNW
Lacrosse 5 rocket 4.1 21:16:58 10° NW 21:20:05 20° N 21:23:05 10° NE
USA 81 4.1 21:19:52 13° S 21:24:38 88° W 21:29:58 10° N
Cosmos 2058 4.0 21:25:00 22° SE 21:26:34 29° E 21:30:10 10° NNE
BREEZE M DEB (TANK) 2.4 21:25:25 10° W 21:27:34 33° SSW 21:27:39 33° SSW
Cosmos 2181 Rocket 4.1 21:22:52 10° N 21:29:13 77° W 21:34:15 16° S
Cosmos 1408 4.3 21:29:06 17° E 21:29:40 17° E 21:32:06 10° NE
Cosmos 2074 Rocket 4.1 21:29:16 19° S 21:33:48 63° E 21:39:57 10° NNE
TSX-5 4.3 21:32:11 10° NNW 21:35:33 46° ENE 21:37:36 24° ESE
Cosmos 1076 Rocket 4.3 21:36:08 26° SE 21:37:45 35° E 21:41:39 10° NNE
Cosmos 1680 Rocket 4.3 21:35:41 24° SSE 21:38:01 34° ESE 21:42:48 10° NE
USA 267 3.4 21:34:04 13° ESE 21:39:56 75° NNE 21:46:31 10° NW
Cosmos 2084 3.6 21:41:34 10° NW 21:46:01 69° SW 21:48:05 30° SSE
Cosmos 1842 Rocket 3.5 21:42:24 10° N 21:46:47 82° W 21:49:02 28° S
JB-3 4.2 21:44:27 10° NNE 21:48:17 70° E 21:49:57 32° S
MTI 3.5 21:49:10 10° NNE 21:52:15 88° E 21:53:10 43° S
Cosmos 923 Rocket 4.0 21:52:19 24° S 21:55:25 62° ESE 22:00:40 10° NNE
ATLAS CENTAUR R/B 1.6 21:53:52 10° NW 21:57:25 45° WSW 21:58:26 34° SSW
Cosmos 1825 3.4 21:58:08 25° ESE 21:58:42 26° E 22:01:54 10° NNE
ALOS 2 4.2 21:58:03 17° ESE 22:00:08 24° ENE 22:03:40 10° NNE
Cosmos 1980 3.8 21:56:55 24° S 22:00:13 58° ESE 22:05:46 10° NNE
Cosmos 967 Rocket 4.5 21:55:59 10° SSW 22:02:25 77° ESE 22:08:54 10° NE
COSMOS 2428 3.2 21:59:36 10° SW 22:05:12 60° WNW 22:10:51 10° NNE
Cosmos 1869 3.7 22:03:48 10° NNW 22:07:42 56° W 22:09:22 31° SSW
NOSS 0 Rocket 3.8 22:07:31 16° SSW 22:12:34 84° ESE 22:18:47 10° NNE
Terra 3.0 22:10:34 19° SSW 22:13:21 35° W 22:17:44 10° NNW
Cosmos 1624 Rocket 4.4 22:09:16 10° NNW 22:14:25 53° ENE 22:16:57 28° SE
NOSS 3-4 (A) 3.9 22:07:42 10° NW 22:14:40 79° NE 22:19:47 23° SE
NOSS 3-4 (C) 3.9 22:07:49 10° NW 22:14:47 78° NE 22:19:55 23° SE
Cosmos 1610 Rocket 4.5 22:11:20 25° S 22:15:11 83° E 22:21:35 10° N
Cosmos 2237 Rocket 2.1 22:14:58 24° SSW 22:18:28 75° ESE 22:24:11 10° NNE
Genesis I 3.3 22:18:36 48° SSE 22:19:09 53° ESE 22:22:58 10° NE
Cosmos 2344 3.6 22:16:02 21° S 22:21:04 56° ESE 22:28:46 10° NE
Cosmos 2219 Rocket 3.3 22:15:52 10° SW 22:21:09 42° NW 22:26:29 10° NNE
Elektron 1 4.2 22:21:21 36° SW 22:22:37 81° SE 22:27:48 10° NE
Atlas Centaur 2 4.3 22:19:01 10° SW 22:21:21 15° SSW 22:21:21 15° SSW
DELTA 2 R/B (1) 4.0 22:24:10 10° SW 22:29:14 36° S 22:30:03 35° SSE
Thor Agena Rocket 3.4 22:25:52 10° NNE 22:31:01 82° ESE 22:33:18 34° S
Cosmos 2333 Rocket 3.7 22:26:14 10° WSW 22:31:24 35° NW 22:36:39 10° NNE
Cosmos 2221 4.0 22:33:34 10° NNW 22:37:21 29° W 22:39:20 20° SW
BREEZE-M DEB (TANK) 1.4 22:37:23 10° WNW 22:41:10 73° NNE 22:41:22 68° ENE
Iridium 2 3.8 22:37:48 10° N 22:41:37 66° W 22:42:26 49° SSW
Cosmos 1371 Rocket 4.0 22:36:55 10° NNW 22:42:13 82° WSW 22:44:15 39° SSE
ATLAS 2AS CENTAUR R/B 2.8 22:35:03 10° NW 22:42:39 82° SW 22:46:25 30° SSE
Cosmos 1892 3.9 22:42:00 24° WSW 22:43:37 35° WNW 22:47:09 10° N
EO 1 Del DPAF 3.2 22:40:19 10° N 22:44:05 77° WNW 22:44:59 49° SSW
Cosmos 1766 Rocket 3.9 22:44:24 43° SE 22:45:21 52° E 22:49:39 10° NNE
MOS 1-B Rocket 4.4 22:38:10 10° NNE 22:45:59 89° ESE 22:49:56 28° SSW
Okean 3 Rocket 3.6 22:47:02 46° SSE 22:48:10 65° E 22:52:33 10° NNE
Aureole 2 Rocket 2.4 22:46:26 10° NNW 22:48:59 54° NE 22:48:59 54° NE
Cosmos 1328 Rocket 4.0 22:45:06 10° N 22:49:18 48° ENE 22:50:25 38° ESE
USA 215 3.9 22:43:54 10° NE 22:50:17 57° NNW 22:56:39 10° W
Cosmos 2112 Rocket 4.2 22:48:24 25° SW 22:51:30 70° WNW 22:56:52 10° NNE
Cosmos 1606 2.8 22:47:47 10° N 22:51:39 63° ENE 22:52:19 53° SE
Cosmos 2278 Rocket 3.1 22:47:41 10° NW 22:52:51 37° WSW 22:54:59 27° SSW
Cosmos 2218 Rocket 4.3 22:50:54 33° SSE 22:53:38 57° E 22:59:48 10° NNE
Cosmos 2297 3.8 22:48:46 10° NNW 22:54:32 72° ENE 22:57:11 33° SE
Cosmos 158 Rocket 4.3 22:52:56 24° SW 22:55:44 57° WNW 23:00:35 10° NNE
Cosmos 1420 Rocket 4.2 22:53:08 10° NNW 22:58:25 67° ENE 23:00:36 35° SE
Cosmos 2366 rocket 4.2 22:56:35 34° SSE 22:59:18 59° E 23:05:33 10° NNE
Lacrosse 5 rocket 3.5 22:56:57 10° NW 23:00:20 25° NNE 23:03:34 10° ENE
Spot 4 4.4 22:59:07 35° SSW 23:00:40 48° W 23:05:19 10° NNW
Cosmos 1943 Rocket 3.1 22:55:41 10° NNW 23:01:06 42° NE 23:04:40 20° ESE
Cosmos 1633 4.1 23:01:11 24° E 23:01:14 24° E 23:04:10 10° NE
SL-16 R/B 2.2 23:00:47 39° S 23:02:49 64° ESE 23:08:27 10° NNE
Cosmos 1408 3.9 23:03:24 26° WSW 23:04:27 31° WNW 23:07:41 10° N
Cosmos 2056 Rocket 3.7 23:00:47 10° NNW 23:06:08 61° WSW 23:07:58 39° SSW
Cosmos 1959 Rocket 4.5 23:06:20 36° SSE 23:08:55 71° E 23:15:05 10° NNE
Cosmos 2341 Rocket 4.2 23:11:46 30° SSW 23:14:58 67° WNW 23:21:11 10° N
Cosmos 332 Rocket 4.0 23:15:01 10° NNW 23:19:47 64° ENE 23:21:28 38° SE
Meteor 2-3 Rocket 3.7 23:21:02 40° S 23:23:05 73° E 23:28:47 10° NNE
USA 267 3.8 23:21:24 32° SSW 23:23:16 39° SW 23:29:21 10° WNW
IRIDIUM 104 4.3 23:23:26 41° SSW 23:25:16 77° W 23:30:31 10° N
Cosmos 2151 4.0 23:23:52 29° WSW 23:25:21 38° WNW 23:29:23 10° N
Helios 1A 2.9 23:24:53 55° SSE 23:25:45 80° ENE 23:29:56 10° NNW
Cosmos 405 3.6 23:25:23 10° N 23:28:49 46° ENE 23:29:08 44° E
Meteor 1-26 Rocket 4.3 23:26:55 10° NNW 23:32:58 88° W 23:35:20 39° S
Cosmos 1452 Rocket 3.4 23:27:56 10° NNW 23:33:14 87° ENE 23:35:06 42° SSE
SL-8 Rocket 4.2 23:30:59 32° SSW 23:33:55 64° W 23:40:04 10° N
CZ-4C R/B 3.7 23:27:13 10° NW 23:34:00 51° NE 23:41:52 10° ESE
Cosmos 1825 4.0 23:32:56 20° W 23:34:10 24° WNW 23:37:17 10° NNW
Cosmos 1340 2.6 23:34:23 64° SW 23:34:47 72° W 23:38:34 10° N
COSMOS 2455 2.9 23:29:02 10° NNW 23:35:07 77° NE 23:38:24 29° SE
PSLV R/B 4.3 23:31:57 10° NNE 23:35:55 38° E 23:36:34 36° ESE
ALOS 2 3.4 23:35:27 35° SW 23:36:16 39° W 23:40:24 10° NNW
Cosmos 1408 Rocket 3.5 23:35:56 52° SSW 23:36:56 77° W 23:41:21 10° N
Cosmos 1933 3.7 23:33:48 10° NNW 23:37:42 50° W 23:38:13 47° WSW
Cosmos 1151 Rocket 3.5 23:35:05 10° NNW 23:39:15 47° W 23:40:03 42° SW
APEX 3.7 23:42:33 10° NNW 23:44:21 37° NW 23:44:21 37° NW
Cosmos 1727 Rocket 3.9 23:39:09 10° N 23:45:24 82° W 23:48:04 37° S
Cosmos 44 3.5 23:43:38 30° WSW 23:45:30 55° NW 23:49:54 10° NNE
Cosmos 1500 Rocket 3.6 23:44:49 51° SSE 23:45:43 66° E 23:50:06 10° NNE
Cosmos 2369 Rocket 2.5 23:40:09 10° NNW 23:45:43 63° ENE 23:48:49 27° SE
Resurs 1-4 Rocket 4.4 23:43:43 10° ENE 23:46:05 13° E 23:48:27 10° ESE
SL-4 R/B 3.7 23:48:59 11° NW 23:48:59 11° NW 23:49:10 10° NW
GP-B 4.1 23:43:28 10° NNW 23:47:33 36° W 23:48:50 30° WSW
Cosmos 371 Rocket 3.6 23:44:43 10° NNW 23:49:25 51° WSW 23:50:25 43° SW
SeaSat 1 4.2 23:47:02 10° ENE 23:50:20 18° ESE 23:51:20 17° ESE
Helios 1B rocket 2.8 23:50:43 10° NNE 23:54:44 49° E 23:55:23 44° SE
CREW DRAGON DEMO-1 DEB 4.0 23:54:49 27° WNW 23:56:04 42° NNW 23:59:01 10° ENE
